• In Deutschland
  • Länderverzeichnis
  • Für 7 Tage
  • Wassertemperatur
  • Satellitenkarten
  • Wetterkarte
  • Widgets
  • user-avatar
    Anmelden

    Stündliche Wetter Salzburg

    Heute, 24 August, Donnerstag

    Zeit Temperatur Niederschläge Wind Luftdruck Luftfeuchtigkeit
    00:00 +9°C° 0 mm 1 m/S 629 mmHg 80%
    01:00 +8°C° 0 mm 2 m/S 629 mmHg 77%
    02:00 +8°C° 0 mm 2 m/S 629 mmHg 74%
    03:00 +8°C° 0 mm 2 m/S 629 mmHg 72%
    04:00 +8°C° 0 mm 2 m/S 629 mmHg 69%
    05:00 +9°C° 0 mm 2 m/S 629 mmHg 67%
    06:00 +11°C° 0 mm 1 m/S 630 mmHg 66%
    07:00 +12°C° 0 mm 1 m/S 630 mmHg 65%
    08:00 +15°C° 0 mm 1 m/S 631 mmHg 58%
    09:00 +19°C° 0 mm 1 m/S 632 mmHg 51%
    10:00 +22°C° 0 mm 1 m/S 633 mmHg 44%
    11:00 +22°C° 0 mm 1 m/S 633 mmHg 42%
    12:00 +23°C° 0 mm 1 m/S 633 mmHg 41%
    13:00 +24°C° 0 mm 1 m/S 634 mmHg 39%
    14:00 +23°C° 0 mm 1 m/S 633 mmHg 43%
    15:00 +23°C° 0 mm 1 m/S 633 mmHg 48%
    16:00 +22°C° 0 mm 1 m/S 633 mmHg 52%
    17:00 +20°C° 1 mm 1 m/S 632 mmHg 63%
    18:00 +16°C° 1 mm 1 m/S 631 mmHg 75%
    19:00 +13°C° 1 mm 0 m/S 630 mmHg 86%
    20:00 +13°C° 0,6 mm 1 m/S 630 mmHg 86%
    21:00 +13°C° 0,6 mm 1 m/S 631 mmHg 86%
    22:00 +12°C° 0,6 mm 1 m/S 631 mmHg 87%
    23:00 +12°C° 0,3 mm 1 m/S 631 mmHg 86%

    Morgen, 25 August, Freitag

    Zeit Temperatur Niederschläge Wind Luftdruck Luftfeuchtigkeit
    00:00 +12°C° 0,3 mm 1 m/S 630 mmHg 86%
    01:00 +11°C° 0,3 mm 1 m/S 630 mmHg 85%
    02:00 +11°C° 0,2 mm 1 m/S 630 mmHg 84%
    03:00 +11°C° 0,2 mm 1 m/S 630 mmHg 83%
    04:00 +11°C° 0,2 mm 1 m/S 630 mmHg 82%
    05:00 +12°C° 0 mm 1 m/S 630 mmHg 80%
    06:00 +13°C° 0 mm 1 m/S 631 mmHg 78%
    07:00 +14°C° 0 mm 1 m/S 631 mmHg 76%
    08:00 +16°C° 0 mm 1 m/S 632 mmHg 66%
    09:00 +20°C° 0 mm 1 m/S 633 mmHg 57%
    10:00 +21°C° 0 mm 0 m/S 634 mmHg 47%
    11:00 +23°C° 0 mm 1 m/S 634 mmHg 46%
    12:00 +24°C° 0 mm 1 m/S 634 mmHg 44%
    13:00 +24°C° 0 mm 1 m/S 634 mmHg 43%
    14:00 +23°C° 0,2 mm 1 m/S 633 mmHg 48%
    15:00 +23°C° 0,2 mm 1 m/S 633 mmHg 53%
    16:00 +22°C° 0,2 mm 1 m/S 632 mmHg 58%
    17:00 +20°C° 0,9 mm 1 m/S 632 mmHg 67%
    18:00 +18°C° 0,9 mm 1 m/S 631 mmHg 77%
    19:00 +13°C° 0,9 mm 0 m/S 630 mmHg 86%
    20:00 +14°C° 0,3 mm 1 m/S 631 mmHg 86%
    21:00 +14°C° 0,3 mm 1 m/S 631 mmHg 86%
    22:00 +13°C° 0,3 mm 1 m/S 631 mmHg 86%
    23:00 +13°C° 0 mm 1 m/S 630 mmHg 86%

    übermorgen, 26 August, Samstag

    Zeit Temperatur Niederschläge Wind Luftdruck Luftfeuchtigkeit
    00:00 +13°C° 0 mm 1 m/S 630 mmHg 85%
    01:00 +12°C° 0 mm 1 m/S 630 mmHg 84%
    02:00 +12°C° 0 mm 1 m/S 630 mmHg 82%
    03:00 +12°C° 0 mm 1 m/S 630 mmHg 81%
    04:00 +12°C° 0 mm 1 m/S 630 mmHg 79%
    05:00 +13°C° 0 mm 1 m/S 630 mmHg 77%
    06:00 +14°C° 0 mm 1 m/S 631 mmHg 74%
    07:00 +15°C° 0 mm 1 m/S 631 mmHg 71%
    08:00 +18°C° 0 mm 1 m/S 632 mmHg 62%
    09:00 +21°C° 0 mm 1 m/S 633 mmHg 53%
    10:00 +21°C° 0 mm 0 m/S 634 mmHg 44%
    11:00 +24°C° 0 mm 1 m/S 634 mmHg 44%
    12:00 +24°C° 0 mm 1 m/S 634 mmHg 43%
    13:00 +25°C° 0 mm 1 m/S 634 mmHg 42%
    14:00 +25°C° 0,1 mm 1 m/S 633 mmHg 45%
    15:00 +24°C° 0,1 mm 1 m/S 633 mmHg 48%
    16:00 +24°C° 0,1 mm 1 m/S 633 mmHg 51%
    17:00 +21°C° 0,7 mm 1 m/S 632 mmHg 61%
    18:00 +19°C° 0,7 mm 1 m/S 631 mmHg 71%
    19:00 +15°C° 0,7 mm 0 m/S 631 mmHg 81%
    20:00 +16°C° 0,1 mm 1 m/S 631 mmHg 80%
    21:00 +15°C° 0,1 mm 1 m/S 631 mmHg 80%
    22:00 +15°C° 0,1 mm 1 m/S 631 mmHg 80%
    23:00 +14°C° 0 mm 1 m/S 630 mmHg 79%

    27 August, Sonntag

    Zeit Temperatur Niederschläge Wind Luftdruck Luftfeuchtigkeit
    00:00 +14°C° 0 mm 1 m/S 630 mmHg 79%
    01:00 +13°C° 0 mm 1 m/S 630 mmHg 78%
    02:00 +13°C° 0,2 mm 1 m/S 630 mmHg 79%
    03:00 +12°C° 0,2 mm 1 m/S 629 mmHg 80%
    04:00 +12°C° 0,2 mm 1 m/S 629 mmHg 81%
    05:00 +13°C° 0,3 mm 1 m/S 630 mmHg 79%
    06:00 +14°C° 0,3 mm 1 m/S 630 mmHg 77%
    07:00 +15°C° 0,3 mm 1 m/S 631 mmHg 75%
    08:00 +19°C° 0 mm 1 m/S 632 mmHg 65%
    09:00 +21°C° 0 mm 1 m/S 632 mmHg 55%
    10:00 +22°C° 0 mm 0 m/S 633 mmHg 46%
    11:00 +25°C° 0 mm 1 m/S 633 mmHg 44%
    12:00 +25°C° 0 mm 1 m/S 633 mmHg 43%
    13:00 +26°C° 0 mm 1 m/S 633 mmHg 41%
    14:00 +25°C° 0 mm 1 m/S 633 mmHg 45%
    15:00 +25°C° 0 mm 1 m/S 632 mmHg 48%
    16:00 +24°C° 0 mm 1 m/S 632 mmHg 52%
    17:00 +22°C° 1,9 mm 1 m/S 631 mmHg 63%
    18:00 +19°C° 1,9 mm 1 m/S 630 mmHg 73%
    19:00 +15°C° 1,9 mm 0 m/S 630 mmHg 84%
    20:00 +16°C° 1,8 mm 1 m/S 630 mmHg 85%
    21:00 +15°C° 1,8 mm 1 m/S 630 mmHg 85%
    22:00 +15°C° 1,8 mm 1 m/S 630 mmHg 86%
    23:00 +15°C° 0,9 mm 1 m/S 630 mmHg 87%

    28 August, Montag

    Zeit Temperatur Niederschläge Wind Luftdruck Luftfeuchtigkeit
    00:00 +14°C° 0,9 mm 1 m/S 630 mmHg 87%
    01:00 +14°C° 0,9 mm 2 m/S 630 mmHg 88%
    02:00 +13°C° 0,2 mm 2 m/S 630 mmHg 89%
    03:00 +13°C° 0,2 mm 2 m/S 630 mmHg 89%
    04:00 +12°C° 0,2 mm 2 m/S 630 mmHg 90%
    05:00 +13°C° 0,1 mm 1 m/S 630 mmHg 89%
    06:00 +13°C° 0,1 mm 1 m/S 630 mmHg 87%
    07:00 +14°C° 0,1 mm 1 m/S 631 mmHg 86%
    08:00 +16°C° 0 mm 1 m/S 632 mmHg 76%
    09:00 +19°C° 0 mm 1 m/S 632 mmHg 66%
    10:00 +21°C° 0 mm 1 m/S 633 mmHg 56%
    11:00 +21°C° 0,1 mm 2 m/S 633 mmHg 54%
    12:00 +21°C° 0,1 mm 2 m/S 633 mmHg 51%
    13:00 +23°C° 0,1 mm 2 m/S 633 mmHg 49%
    14:00 +23°C° 0,1 mm 2 m/S 633 mmHg 52%
    15:00 +21°C° 0,1 mm 2 m/S 633 mmHg 55%
    16:00 +21°C° 0,1 mm 2 m/S 633 mmHg 57%
    17:00 +20°C° 0 mm 1 m/S 632 mmHg 68%
    18:00 +16°C° 0 mm 1 m/S 631 mmHg 79%
    19:00 +13°C° 0 mm 0 m/S 631 mmHg 90%
    20:00 +14°C° 0 mm 1 m/S 631 mmHg 91%
    21:00 +13°C° 0 mm 1 m/S 631 mmHg 93%
    22:00 +13°C° 0 mm 1 m/S 631 mmHg 94%
    23:00 +12°C° 0 mm 1 m/S 631 mmHg 94%

    29 August, Dienstag

    Zeit Temperatur Niederschläge Wind Luftdruck Luftfeuchtigkeit
    00:00 +12°C° 0 mm 1 m/S 631 mmHg 94%
    01:00 +12°C° 0 mm 1 m/S 631 mmHg 93%
    02:00 +11°C° 0 mm 1 m/S 631 mmHg 93%
    03:00 +11°C° 0 mm 1 m/S 630 mmHg 93%
    04:00 +11°C° 0 mm 1 m/S 630 mmHg 92%
    05:00 +12°C° 0 mm 1 m/S 631 mmHg 90%
    06:00 +13°C° 0 mm 1 m/S 631 mmHg 87%
    07:00 +14°C° 0 mm 1 m/S 632 mmHg 84%
    08:00 +16°C° 0 mm 1 m/S 632 mmHg 74%
    09:00 +20°C° 0 mm 1 m/S 633 mmHg 63%
    10:00 +22°C° 0 mm 1 m/S 634 mmHg 53%
    11:00 +23°C° 0 mm 1 m/S 634 mmHg 50%
    12:00 +24°C° 0 mm 1 m/S 634 mmHg 46%
    13:00 +25°C° 0 mm 1 m/S 634 mmHg 43%
    14:00 +24°C° 0 mm 1 m/S 633 mmHg 46%
    15:00 +24°C° 0 mm 1 m/S 633 mmHg 50%
    16:00 +23°C° 0 mm 2 m/S 633 mmHg 53%
    17:00 +21°C° 0 mm 1 m/S 632 mmHg 65%
    18:00 +18°C° 0 mm 1 m/S 631 mmHg 76%
    19:00 +15°C° 0 mm 1 m/S 630 mmHg 88%
    20:00 +15°C° 0 mm 1 m/S 630 mmHg 89%
    21:00 +14°C° 0 mm 1 m/S 630 mmHg 89%
    22:00 +14°C° 0 mm 1 m/S 630 mmHg 90%
    23:00 +13°C° 0 mm 1 m/S 630 mmHg 90%
    Mehr zeigen